owner,sensor,date,latitude,longitude,vertical_datum,wind_speed,wind_to_direction,wind_speed_of_gust,qcFlag 
FIT,ioos:station:wmo:SIPF1:1,2017-03-01T00:00:00Z,27.8620,-80.4450,1.0,4.4,128.0,99.0,'11111222,11111222,11144222' 
FIT,ioos:station:wmo:SIPF1:1,2017-03-01T00:15:00Z,27.8620,-80.4450,1.0,4.8,132.0,99.0,'11111222,11111222,11144222' 
FIT,ioos:station:wmo:SIPF1:1,2017-03-01T00:30:00Z,27.8620,-80.4450,1.0,5.1,132.0,99.0,'11111222,11111222,11144222' 
FIT,ioos:station:wmo:SIPF1:1,2017-03-01T00:45:00Z,27.8620,-80.4450,1.0,5.2,131.0,99.0,'11111222,11111222,11144222' 
FIT,ioos:station:wmo:SIPF1:1,2017-03-01T01:00:00Z,27.8620,-80.4450,1.0,4.8,137.0,99.0,'11111222,11111222,11144222' 
FIT,ioos:station:wmo:SIPF1:1,2017-03-01T01:15:00Z,27.8620,-80.4450,1.0,5.1,133.0,99.0,'11111222,11111222,11144222' 
FIT,ioos:station:wmo:SIPF1:1,2017-03-01T01:30:00Z,27.8620,-80.4450,1.0,4.9,134.0,99.0,'11111222,11111222,11144222' 
FIT,ioos:station:wmo:SIPF1:1,2017-03-01T01:45:00Z,27.8620,-80.4450,1.0,5.3,140.0,99.0,'11111222,11111222,11144222' 
FIT,ioos:station:wmo:SIPF1:1,2017-03-01T02:00:00Z,27.8620,-80.4450,1.0,5.1,144.0,99.0,'11111222,11111222,11144222' 
FIT,ioos:station:wmo:SIPF1:1,2017-03-01T02:15:00Z,27.8620,-80.4450,1.0,4.9,145.0,99.0,'11111222,11111222,11144222' 
FIT,ioos:station:wmo:SIPF1:1,2017-03-01T02:30:00Z,27.8620,-80.4450,1.0,4.2,137.0,99.0,'11111222,11111222,11144222' 
FIT,ioos:station:wmo:SIPF1:1,2017-03-01T02:45:00Z,27.8620,-80.4450,1.0,4.1,133.0,99.0,'11111222,11111222,11144222' 
FIT,ioos:station:wmo:SIPF1:1,2017-03-01T03:00:00Z,27.8620,-80.4450,1.0,4.1,139.0,99.0,'11111222,11111222,11144222' 
FIT,ioos:station:wmo:SIPF1:1,2017-03-01T03:15:00Z,27.8620,-80.4450,1.0,3.9,144.0,99.0,'11111222,11111222,11144222' 
FIT,ioos:station:wmo:SIPF1:1,2017-03-01T03:30:00Z,27.8620,-80.4450,1.0,3.9,142.0,99.0,'11111222,11111222,11144222' 
FIT,ioos:station:wmo:SIPF1:1,2017-03-01T03:45:00Z,27.8620,-80.4450,1.0,4.1,140.0,99.0,'11111222,11111222,11144222' 
FIT,ioos:station:wmo:SIPF1:1,2017-03-01T04:00:00Z,27.8620,-80.4450,1.0,4.5,133.0,99.0,'11111222,11111222,11144222' 
FIT,ioos:station:wmo:SIPF1:1,2017-03-01T04:15:00Z,27.8620,-80.4450,1.0,5.1,134.0,99.0,'11111222,11111222,11144222' 
FIT,ioos:station:wmo:SIPF1:1,2017-03-01T04:30:00Z,27.8620,-80.4450,1.0,5.5,136.0,99.0,'11111222,11111222,11144222' 
FIT,ioos:station:wmo:SIPF1:1,2017-03-01T04:45:00Z,27.8620,-80.4450,1.0,5.6,140.0,99.0,'11111222,11111222,11144222' 
FIT,ioos:station:wmo:SIPF1:1,2017-03-01T05:00:00Z,27.8620,-80.4450,1.0,5.1,142.0,99.0,'11111222,11111222,11144222' 
FIT,ioos:station:wmo:SIPF1:1,2017-03-01T05:15:00Z,27.8620,-80.4450,1.0,4.8,138.0,99.0,'11111222,11111222,11144222' 
FIT,ioos:station:wmo:SIPF1:1,2017-03-01T05:30:00Z,27.8620,-80.4450,1.0,4.9,142.0,99.0,'11111222,11111222,11144222' 
FIT,ioos:station:wmo:SIPF1:1,2017-03-01T05:45:00Z,27.8620,-80.4450,1.0,4.6,143.0,99.0,'11111222,11111222,11144222' 
FIT,ioos:station:wmo:SIPF1:1,2017-03-01T06:00:00Z,27.8620,-80.4450,1.0,5.1,142.0,99.0,'11111222,11111222,11144222' 
FIT,ioos:station:wmo:SIPF1:1,2017-03-01T06:15:00Z,27.8620,-80.4450,1.0,5.2,143.0,99.0,'11111222,11111222,11144222' 
FIT,ioos:station:wmo:SIPF1:1,2017-03-01T06:30:00Z,27.8620,-80.4450,1.0,4.8,143.0,99.0,'11111222,11111222,11144222' 
FIT,ioos:station:wmo:SIPF1:1,2017-03-01T06:45:00Z,27.8620,-80.4450,1.0,4.7,144.0,99.0,'11111222,11111222,11144222' 
FIT,ioos:station:wmo:SIPF1:1,2017-03-01T07:00:00Z,27.8620,-80.4450,1.0,5.2,145.0,99.0,'11111222,11111222,11144222' 
FIT,ioos:station:wmo:SIPF1:1,2017-03-01T07:15:00Z,27.8620,-80.4450,1.0,5.3,147.0,99.0,'11111222,11111222,11144222' 
FIT,ioos:station:wmo:SIPF1:1,2017-03-01T07:30:00Z,27.8620,-80.4450,1.0,5.5,144.0,99.0,'11111222,11111222,11144222' 
FIT,ioos:station:wmo:SIPF1:1,2017-03-01T07:45:00Z,27.8620,-80.4450,1.0,5.9,143.0,99.0,'11111222,11111222,11144222' 
FIT,ioos:station:wmo:SIPF1:1,2017-03-01T08:00:00Z,27.8620,-80.4450,1.0,6.4,145.0,99.0,'11111222,11111222,11144222' 
FIT,ioos:station:wmo:SIPF1:1,2017-03-01T08:15:00Z,27.8620,-80.4450,1.0,6.4,146.0,99.0,'11111222,11111222,11144222' 
FIT,ioos:station:wmo:SIPF1:1,2017-03-01T08:30:00Z,27.8620,-80.4450,1.0,6.3,147.0,99.0,'11111222,11111222,11144222' 
FIT,ioos:station:wmo:SIPF1:1,2017-03-01T08:45:00Z,27.8620,-80.4450,1.0,6.2,148.0,99.0,'11111222,11111222,11144222' 
FIT,ioos:station:wmo:SIPF1:1,2017-03-01T09:00:00Z,27.8620,-80.4450,1.0,6.4,149.0,99.0,'11111222,11111222,11144222' 
FIT,ioos:station:wmo:SIPF1:1,2017-03-01T09:15:00Z,27.8620,-80.4450,1.0,6.0,149.0,99.0,'11111222,11111222,11144222' 
FIT,ioos:station:wmo:SIPF1:1,2017-03-01T09:30:00Z,27.8620,-80.4450,1.0,6.1,150.0,99.0,'11111222,11111222,11144222' 
FIT,ioos:station:wmo:SIPF1:1,2017-03-01T09:45:00Z,27.8620,-80.4450,1.0,6.0,149.0,99.0,'11111222,11111222,11144222' 
FIT,ioos:station:wmo:SIPF1:1,2017-03-01T10:00:00Z,27.8620,-80.4450,1.0,5.7,152.0,99.0,'11111222,11111222,11144222' 
FIT,ioos:station:wmo:SIPF1:1,2017-03-01T10:15:00Z,27.8620,-80.4450,1.0,5.3,155.0,99.0,'11111222,11111222,11144222' 
FIT,ioos:station:wmo:SIPF1:1,2017-03-01T10:30:00Z,27.8620,-80.4450,1.0,4.9,155.0,99.0,'11111222,11111222,11144222' 
FIT,ioos:station:wmo:SIPF1:1,2017-03-01T10:45:00Z,27.8620,-80.4450,1.0,4.8,155.0,99.0,'11111222,11111222,11144222' 
FIT,ioos:station:wmo:SIPF1:1,2017-03-01T11:00:00Z,27.8620,-80.4450,1.0,5.0,152.0,99.0,'11111222,11111222,11144222' 
FIT,ioos:station:wmo:SIPF1:1,2017-03-01T11:15:00Z,27.8620,-80.4450,1.0,5.0,150.0,99.0,'11111222,11111222,11144222' 
FIT,ioos:station:wmo:SIPF1:1,2017-03-01T11:30:00Z,27.8620,-80.4450,1.0,5.0,155.0,99.0,'11111222,11111222,11144222' 
FIT,ioos:station:wmo:SIPF1:1,2017-03-01T11:45:00Z,27.8620,-80.4450,1.0,4.8,155.0,99.0,'11111222,11111222,11144222' 
FIT,ioos:station:wmo:SIPF1:1,2017-03-01T12:00:00Z,27.8620,-80.4450,1.0,3.5,143.0,99.0,'11111222,11111222,11144222' 
FIT,ioos:station:wmo:SIPF1:1,2017-03-01T12:15:00Z,27.8620,-80.4450,1.0,3.2,141.0,99.0,'11111222,11111222,11144222' 
FIT,ioos:station:wmo:SIPF1:1,2017-03-01T12:30:00Z,27.8620,-80.4450,1.0,3.0,173.0,99.0,'11111222,11111222,11144222' 
FIT,ioos:station:wmo:SIPF1:1,2017-03-01T12:45:00Z,27.8620,-80.4450,1.0,2.0,177.0,99.0,'11111222,11111222,11144222' 
FIT,ioos:station:wmo:SIPF1:1,2017-03-01T13:00:00Z,27.8620,-80.4450,1.0,2.8,157.0,99.0,'11111222,11111222,11144222' 
FIT,ioos:station:wmo:SIPF1:1,2017-03-01T13:15:00Z,27.8620,-80.4450,1.0,3.2,150.0,99.0,'11111222,11111222,11144222' 
FIT,ioos:station:wmo:SIPF1:1,2017-03-01T13:30:00Z,27.8620,-80.4450,1.0,3.3,147.0,99.0,'11111222,11111222,11144222' 
FIT,ioos:station:wmo:SIPF1:1,2017-03-01T13:45:00Z,27.8620,-80.4450,1.0,3.3,144.0,99.0,'11111222,11111222,11144222' 
FIT,ioos:station:wmo:SIPF1:1,2017-03-01T14:00:00Z,27.8620,-80.4450,1.0,3.6,146.0,99.0,'11111222,11111222,11144222' 
FIT,ioos:station:wmo:SIPF1:1,2017-03-01T14:15:00Z,27.8620,-80.4450,1.0,3.8,144.0,99.0,'11111222,11111222,11144222' 
FIT,ioos:station:wmo:SIPF1:1,2017-03-01T14:30:00Z,27.8620,-80.4450,1.0,4.1,148.0,99.0,'11111222,11111222,11144222' 
FIT,ioos:station:wmo:SIPF1:1,2017-03-01T14:45:00Z,27.8620,-80.4450,1.0,4.7,154.0,99.0,'11111222,11111222,11144222' 
FIT,ioos:station:wmo:SIPF1:1,2017-03-01T15:00:00Z,27.8620,-80.4450,1.0,5.0,154.0,99.0,'11111222,11111222,11144222' 
FIT,ioos:station:wmo:SIPF1:1,2017-03-01T15:15:00Z,27.8620,-80.4450,1.0,4.8,156.0,99.0,'11111222,11111222,11144222' 
FIT,ioos:station:wmo:SIPF1:1,2017-03-01T15:30:00Z,27.8620,-80.4450,1.0,4.4,157.0,99.0,'11111222,11111222,11144222' 
FIT,ioos:station:wmo:SIPF1:1,2017-03-01T15:45:00Z,27.8620,-80.4450,1.0,4.7,158.0,99.0,'11111222,11111222,11144222' 
FIT,ioos:station:wmo:SIPF1:1,2017-03-01T16:00:00Z,27.8620,-80.4450,1.0,4.3,155.0,99.0,'11111222,11111222,11144222' 
FIT,ioos:station:wmo:SIPF1:1,2017-03-01T16:15:00Z,27.8620,-80.4450,1.0,5.1,151.0,99.0,'11111222,11111222,11144222' 
FIT,ioos:station:wmo:SIPF1:1,2017-03-01T16:30:00Z,27.8620,-80.4450,1.0,4.6,147.0,99.0,'11111222,11111222,11144222' 
FIT,ioos:station:wmo:SIPF1:1,2017-03-01T16:45:00Z,27.8620,-80.4450,1.0,3.8,143.0,99.0,'11111222,11111222,11144222' 
FIT,ioos:station:wmo:SIPF1:1,2017-03-01T17:00:00Z,27.8620,-80.4450,1.0,3.8,135.0,99.0,'11111222,11111222,11144222' 
FIT,ioos:station:wmo:SIPF1:1,2017-03-01T17:15:00Z,27.8620,-80.4450,1.0,4.1,138.0,99.0,'11111222,11111222,11144222' 
FIT,ioos:station:wmo:SIPF1:1,2017-03-01T17:30:00Z,27.8620,-80.4450,1.0,3.7,139.0,99.0,'11111222,11111222,11144222' 
FIT,ioos:station:wmo:SIPF1:1,2017-03-01T17:45:00Z,27.8620,-80.4450,1.0,4.3,130.0,99.0,'11111222,11111222,11144222' 
FIT,ioos:station:wmo:SIPF1:1,2017-03-01T18:00:00Z,27.8620,-80.4450,1.0,4.8,119.0,99.0,'11111222,11111222,11144222' 
FIT,ioos:station:wmo:SIPF1:1,2017-03-01T18:15:00Z,27.8620,-80.4450,1.0,4.9,120.0,99.0,'11111222,11111222,11144222' 
FIT,ioos:station:wmo:SIPF1:1,2017-03-01T18:30:00Z,27.8620,-80.4450,1.0,4.9,121.0,99.0,'11111222,11111222,11144222' 
FIT,ioos:station:wmo:SIPF1:1,2017-03-01T18:45:00Z,27.8620,-80.4450,1.0,4.5,121.0,99.0,'11111222,11111222,11144222' 
FIT,ioos:station:wmo:SIPF1:1,2017-03-01T19:00:00Z,27.8620,-80.4450,1.0,4.5,119.0,99.0,'11111222,11111222,11144222' 
FIT,ioos:station:wmo:SIPF1:1,2017-03-01T19:15:00Z,27.8620,-80.4450,1.0,4.1,108.0,99.0,'11111222,11111222,11144222' 
FIT,ioos:station:wmo:SIPF1:1,2017-03-01T19:30:00Z,27.8620,-80.4450,1.0,4.3,116.0,99.0,'11111222,11111222,11144222' 
FIT,ioos:station:wmo:SIPF1:1,2017-03-01T19:45:00Z,27.8620,-80.4450,1.0,4.3,121.0,99.0,'11111222,11111222,11144222' 
FIT,ioos:station:wmo:SIPF1:1,2017-03-01T20:00:00Z,27.8620,-80.4450,1.0,5.2,124.0,99.0,'11111222,11111222,11144222' 
FIT,ioos:station:wmo:SIPF1:1,2017-03-01T20:15:00Z,27.8620,-80.4450,1.0,5.5,129.0,99.0,'11111222,11111222,11144222' 
FIT,ioos:station:wmo:SIPF1:1,2017-03-01T20:30:00Z,27.8620,-80.4450,1.0,5.8,126.0,99.0,'11111222,11111222,11144222' 
FIT,ioos:station:wmo:SIPF1:1,2017-03-01T20:45:00Z,27.8620,-80.4450,1.0,5.3,127.0,99.0,'11111222,11111222,11144222' 
FIT,ioos:station:wmo:SIPF1:1,2017-03-01T21:00:00Z,27.8620,-80.4450,1.0,5.5,135.0,99.0,'11111222,11111222,11144222' 
FIT,ioos:station:wmo:SIPF1:1,2017-03-01T21:15:00Z,27.8620,-80.4450,1.0,5.2,138.0,99.0,'11111222,11111222,11144222' 
FIT,ioos:station:wmo:SIPF1:1,2017-03-01T21:30:00Z,27.8620,-80.4450,1.0,5.2,141.0,99.0,'11111222,11111222,11144222' 
FIT,ioos:station:wmo:SIPF1:1,2017-03-01T21:45:00Z,27.8620,-80.4450,1.0,5.1,144.0,99.0,'11111222,11111222,11144222' 
FIT,ioos:station:wmo:SIPF1:1,2017-03-01T22:00:00Z,27.8620,-80.4450,1.0,4.8,137.0,99.0,'11111222,11111222,11144222' 
FIT,ioos:station:wmo:SIPF1:1,2017-03-01T22:15:00Z,27.8620,-80.4450,1.0,4.6,131.0,99.0,'11111222,11111222,11144222' 
FIT,ioos:station:wmo:SIPF1:1,2017-03-01T22:30:00Z,27.8620,-80.4450,1.0,4.5,134.0,99.0,'11111222,11111222,11144222' 
FIT,ioos:station:wmo:SIPF1:1,2017-03-01T22:45:00Z,27.8620,-80.4450,1.0,4.3,134.0,99.0,'11111222,11111222,11144222' 
FIT,ioos:station:wmo:SIPF1:1,2017-03-01T23:00:00Z,27.8620,-80.4450,1.0,4.4,138.0,99.0,'11111222,11111222,11144222' 
FIT,ioos:station:wmo:SIPF1:1,2017-03-01T23:15:00Z,27.8620,-80.4450,1.0,4.6,144.0,99.0,'11111222,11111222,11144222' 
FIT,ioos:station:wmo:SIPF1:1,2017-03-01T23:30:00Z,27.8620,-80.4450,1.0,5.2,147.0,99.0,'11111222,11111222,11144222' 
FIT,ioos:station:wmo:SIPF1:1,2017-03-01T23:45:00Z,27.8620,-80.4450,1.0,5.3,151.0,99.0,'11111222,11111222,11144222' 
FIT,ioos:station:wmo:SIPF1:1,2017-03-02T00:00:00Z,27.8620,-80.4450,1.0,5.7,155.0,99.0,'11111222,11111222,11144222' 
FIT,ioos:station:wmo:SIPF1:1,2017-03-02T00:15:00Z,27.8620,-80.4450,1.0,5.4,151.0,99.0,'11111222,11111222,11144222' 
FIT,ioos:station:wmo:SIPF1:1,2017-03-02T00:30:00Z,27.8620,-80.4450,1.0,5.5,155.0,99.0,'11111222,11111222,11144222' 
FIT,ioos:station:wmo:SIPF1:1,2017-03-02T00:45:00Z,27.8620,-80.4450,1.0,5.5,158.0,99.0,'11111222,11111222,11144222' 
FIT,ioos:station:wmo:SIPF1:1,2017-03-02T01:00:00Z,27.8620,-80.4450,1.0,5.7,167.0,99.0,'11111222,11111222,11144222' 
FIT,ioos:station:wmo:SIPF1:1,2017-03-02T01:15:00Z,27.8620,-80.4450,1.0,6.2,169.0,99.0,'11111222,11111222,11144222' 
FIT,ioos:station:wmo:SIPF1:1,2017-03-02T01:30:00Z,27.8620,-80.4450,1.0,6.7,167.0,99.0,'11111222,11111222,11144222' 
FIT,ioos:station:wmo:SIPF1:1,2017-03-02T01:45:00Z,27.8620,-80.4450,1.0,6.5,167.0,99.0,'11111222,11111222,11144222' 
FIT,ioos:station:wmo:SIPF1:1,2017-03-02T02:00:00Z,27.8620,-80.4450,1.0,6.5,166.0,99.0,'11111222,11111222,11144222' 
FIT,ioos:station:wmo:SIPF1:1,2017-03-02T02:15:00Z,27.8620,-80.4450,1.0,6.1,168.0,99.0,'11111222,11111222,11144222' 
FIT,ioos:station:wmo:SIPF1:1,2017-03-02T02:30:00Z,27.8620,-80.4450,1.0,5.4,166.0,99.0,'11111222,11111222,11144222' 
FIT,ioos:station:wmo:SIPF1:1,2017-03-02T02:45:00Z,27.8620,-80.4450,1.0,5.4,159.0,99.0,'11111222,11111222,11144222' 
FIT,ioos:station:wmo:SIPF1:1,2017-03-02T03:00:00Z,27.8620,-80.4450,1.0,6.2,168.0,99.0,'11111222,11111222,11144222' 
FIT,ioos:station:wmo:SIPF1:1,2017-03-02T03:15:00Z,27.8620,-80.4450,1.0,6.2,172.0,99.0,'11111222,11111222,11144222' 
FIT,ioos:station:wmo:SIPF1:1,2017-03-02T03:30:00Z,27.8620,-80.4450,1.0,5.9,183.0,99.0,'11111222,11111222,11144222' 
FIT,ioos:station:wmo:SIPF1:1,2017-03-02T03:45:00Z,27.8620,-80.4450,1.0,6.3,185.0,99.0,'11111222,11111222,11144222' 
FIT,ioos:station:wmo:SIPF1:1,2017-03-02T04:00:00Z,27.8620,-80.4450,1.0,5.9,190.0,99.0,'11111222,11111222,11144222' 
FIT,ioos:station:wmo:SIPF1:1,2017-03-02T04:15:00Z,27.8620,-80.4450,1.0,6.2,199.0,99.0,'11111222,11111222,11144222' 
FIT,ioos:station:wmo:SIPF1:1,2017-03-02T04:30:00Z,27.8620,-80.4450,1.0,6.0,197.0,99.0,'11111222,11111222,11144222' 
FIT,ioos:station:wmo:SIPF1:1,2017-03-02T04:45:00Z,27.8620,-80.4450,1.0,5.5,205.0,99.0,'11111222,11111222,11144222' 
FIT,ioos:station:wmo:SIPF1:1,2017-03-02T05:00:00Z,27.8620,-80.4450,1.0,5.7,237.0,99.0,'11111222,11111222,11144222' 
FIT,ioos:station:wmo:SIPF1:1,2017-03-02T05:15:00Z,27.8620,-80.4450,1.0,6.4,242.0,99.0,'11111222,11111222,11144222' 
FIT,ioos:station:wmo:SIPF1:1,2017-03-02T05:30:00Z,27.8620,-80.4450,1.0,4.6,243.0,99.0,'11111222,11111222,11144222' 
FIT,ioos:station:wmo:SIPF1:1,2017-03-02T05:45:00Z,27.8620,-80.4450,1.0,3.7,253.0,99.0,'11111222,11111222,11144222' 
FIT,ioos:station:wmo:SIPF1:1,2017-03-02T06:00:00Z,27.8620,-80.4450,1.0,3.5,263.0,99.0,'11111222,11111222,11144222' 
FIT,ioos:station:wmo:SIPF1:1,2017-03-02T06:15:00Z,27.8620,-80.4450,1.0,3.5,267.0,99.0,'11111222,11111222,11144222' 
FIT,ioos:station:wmo:SIPF1:1,2017-03-02T06:30:00Z,27.8620,-80.4450,1.0,3.4,260.0,99.0,'11111222,11111222,11144222' 
FIT,ioos:station:wmo:SIPF1:1,2017-03-02T06:45:00Z,27.8620,-80.4450,1.0,3.6,262.0,99.0,'11111222,11111222,11144222' 
FIT,ioos:station:wmo:SIPF1:1,2017-03-02T07:00:00Z,27.8620,-80.4450,1.0,2.9,261.0,99.0,'11111222,11111222,11144222' 
FIT,ioos:station:wmo:SIPF1:1,2017-03-02T07:15:00Z,27.8620,-80.4450,1.0,1.7,257.0,99.0,'11111222,11111222,11144222' 
FIT,ioos:station:wmo:SIPF1:1,2017-03-02T07:30:00Z,27.8620,-80.4450,1.0,1.4,282.0,99.0,'11111222,11111222,11144222' 
FIT,ioos:station:wmo:SIPF1:1,2017-03-02T07:45:00Z,27.8620,-80.4450,1.0,1.3,313.0,99.0,'11111222,11111222,11144222' 
FIT,ioos:station:wmo:SIPF1:1,2017-03-02T08:00:00Z,27.8620,-80.4450,1.0,1.3,299.0,99.0,'11111222,11111222,11144222' 
FIT,ioos:station:wmo:SIPF1:1,2017-03-02T08:15:00Z,27.8620,-80.4450,1.0,1.4,294.0,99.0,'11111222,11111222,11144222' 
FIT,ioos:station:wmo:SIPF1:1,2017-03-02T08:30:00Z,27.8620,-80.4450,1.0,1.0,295.0,99.0,'11111222,11111222,11144222' 
FIT,ioos:station:wmo:SIPF1:1,2017-03-02T08:45:00Z,27.8620,-80.4450,1.0,1.1,289.0,99.0,'11111222,11111222,11144222' 
FIT,ioos:station:wmo:SIPF1:1,2017-03-02T09:00:00Z,27.8620,-80.4450,1.0,1.6,287.0,99.0,'11111222,11111222,11144222' 
FIT,ioos:station:wmo:SIPF1:1,2017-03-02T09:15:00Z,27.8620,-80.4450,1.0,1.7,250.0,99.0,'11111222,11111222,11144222' 
FIT,ioos:station:wmo:SIPF1:1,2017-03-02T09:30:00Z,27.8620,-80.4450,1.0,2.5,238.0,99.0,'11111222,11111222,11144222' 
FIT,ioos:station:wmo:SIPF1:1,2017-03-02T09:45:00Z,27.8620,-80.4450,1.0,2.4,214.0,99.0,'11111222,11111222,11144222' 
FIT,ioos:station:wmo:SIPF1:1,2017-03-02T10:00:00Z,27.8620,-80.4450,1.0,3.3,198.0,99.0,'11111222,11111222,11144222' 
FIT,ioos:station:wmo:SIPF1:1,2017-03-02T10:15:00Z,27.8620,-80.4450,1.0,3.3,204.0,99.0,'11111222,11111222,11144222' 
FIT,ioos:station:wmo:SIPF1:1,2017-03-02T10:30:00Z,27.8620,-80.4450,1.0,3.1,195.0,99.0,'11111222,11111222,11144222' 
FIT,ioos:station:wmo:SIPF1:1,2017-03-02T10:45:00Z,27.8620,-80.4450,1.0,3.0,197.0,99.0,'11111222,11111222,11144222' 
FIT,ioos:station:wmo:SIPF1:1,2017-03-02T11:00:00Z,27.8620,-80.4450,1.0,3.0,203.0,99.0,'11111222,11111222,11144222' 
FIT,ioos:station:wmo:SIPF1:1,2017-03-02T11:15:00Z,27.8620,-80.4450,1.0,2.4,199.0,99.0,'11111222,11111222,11144222' 
FIT,ioos:station:wmo:SIPF1:1,2017-03-02T11:30:00Z,27.8620,-80.4450,1.0,3.1,203.0,99.0,'11111222,11111222,11144222' 
FIT,ioos:station:wmo:SIPF1:1,2017-03-02T11:45:00Z,27.8620,-80.4450,1.0,2.6,208.0,99.0,'11111222,11111222,11144222' 
FIT,ioos:station:wmo:SIPF1:1,2017-03-02T12:00:00Z,27.8620,-80.4450,1.0,2.9,233.0,99.0,'11111222,11111222,11144222' 
FIT,ioos:station:wmo:SIPF1:1,2017-03-02T12:15:00Z,27.8620,-80.4450,1.0,2.4,233.0,99.0,'11111222,11111222,11144222' 
FIT,ioos:station:wmo:SIPF1:1,2017-03-02T12:30:00Z,27.8620,-80.4450,1.0,2.7,218.0,99.0,'11111222,11111222,11144222' 
FIT,ioos:station:wmo:SIPF1:1,2017-03-02T12:45:00Z,27.8620,-80.4450,1.0,2.5,223.0,99.0,'11111222,11111222,11144222' 
FIT,ioos:station:wmo:SIPF1:1,2017-03-02T13:00:00Z,27.8620,-80.4450,1.0,3.5,216.0,99.0,'11111222,11111222,11144222' 
FIT,ioos:station:wmo:SIPF1:1,2017-03-02T13:15:00Z,27.8620,-80.4450,1.0,3.5,213.0,99.0,'11111222,11111222,11144222' 
FIT,ioos:station:wmo:SIPF1:1,2017-03-02T13:30:00Z,27.8620,-80.4450,1.0,4.2,208.0,99.0,'11111222,11111222,11144222' 
FIT,ioos:station:wmo:SIPF1:1,2017-03-02T13:45:00Z,27.8620,-80.4450,1.0,3.6,232.0,99.0,'11111222,11111222,11144222' 
FIT,ioos:station:wmo:SIPF1:1,2017-03-02T14:00:00Z,27.8620,-80.4450,1.0,3.6,236.0,99.0,'11111222,11111222,11144222' 
FIT,ioos:station:wmo:SIPF1:1,2017-03-02T14:15:00Z,27.8620,-80.4450,1.0,3.6,241.0,99.0,'11111222,11111222,11144222' 
FIT,ioos:station:wmo:SIPF1:1,2017-03-02T14:30:00Z,27.8620,-80.4450,1.0,4.2,241.0,99.0,'11111222,11111222,11144222' 
FIT,ioos:station:wmo:SIPF1:1,2017-03-02T14:45:00Z,27.8620,-80.4450,1.0,4.5,239.0,99.0,'11111222,11111222,11144222' 
FIT,ioos:station:wmo:SIPF1:1,2017-03-02T15:00:00Z,27.8620,-80.4450,1.0,4.9,238.0,99.0,'11111222,11111222,11144222' 
FIT,ioos:station:wmo:SIPF1:1,2017-03-02T15:15:00Z,27.8620,-80.4450,1.0,4.3,241.0,99.0,'11111222,11111222,11144222' 
FIT,ioos:station:wmo:SIPF1:1,2017-03-02T15:30:00Z,27.8620,-80.4450,1.0,4.2,240.0,99.0,'11111222,11111222,11144222' 
FIT,ioos:station:wmo:SIPF1:1,2017-03-02T15:45:00Z,27.8620,-80.4450,1.0,4.3,226.0,99.0,'11111222,11111222,11144222' 
FIT,ioos:station:wmo:SIPF1:1,2017-03-02T16:00:00Z,27.8620,-80.4450,1.0,3.8,234.0,99.0,'11111222,11111222,11144222' 
FIT,ioos:station:wmo:SIPF1:1,2017-03-02T16:15:00Z,27.8620,-80.4450,1.0,3.4,237.0,99.0,'11111222,11111222,11144222' 
FIT,ioos:station:wmo:SIPF1:1,2017-03-02T16:30:00Z,27.8620,-80.4450,1.0,3.7,241.0,99.0,'11111222,11111222,11144222' 
FIT,ioos:station:wmo:SIPF1:1,2017-03-02T16:45:00Z,27.8620,-80.4450,1.0,4.0,240.0,99.0,'11111222,11111222,11144222' 
FIT,ioos:station:wmo:SIPF1:1,2017-03-02T17:00:00Z,27.8620,-80.4450,1.0,3.8,240.0,99.0,'11111222,11111222,11144222' 
FIT,ioos:station:wmo:SIPF1:1,2017-03-02T17:15:00Z,27.8620,-80.4450,1.0,2.6,242.0,99.0,'11111222,11111222,11144222' 
FIT,ioos:station:wmo:SIPF1:1,2017-03-02T17:30:00Z,27.8620,-80.4450,1.0,2.9,262.0,99.0,'11111222,11111222,11144222' 
FIT,ioos:station:wmo:SIPF1:1,2017-03-02T17:45:00Z,27.8620,-80.4450,1.0,3.9,261.0,99.0,'11111222,11111222,11144222' 
FIT,ioos:station:wmo:SIPF1:1,2017-03-02T18:00:00Z,27.8620,-80.4450,1.0,2.7,254.0,99.0,'11111222,11111222,11144222' 
FIT,ioos:station:wmo:SIPF1:1,2017-03-02T18:15:00Z,27.8620,-80.4450,1.0,4.1,243.0,99.0,'11111222,11111222,11144222' 
FIT,ioos:station:wmo:SIPF1:1,2017-03-02T18:30:00Z,27.8620,-80.4450,1.0,3.9,234.0,99.0,'11111222,11111222,11144222' 
FIT,ioos:station:wmo:SIPF1:1,2017-03-02T18:45:00Z,27.8620,-80.4450,1.0,2.7,292.0,99.0,'11111222,11111222,11144222' 
FIT,ioos:station:wmo:SIPF1:1,2017-03-02T19:00:00Z,27.8620,-80.4450,1.0,2.3,227.0,99.0,'11111222,11111222,11144222' 
FIT,ioos:station:wmo:SIPF1:1,2017-03-02T19:15:00Z,27.8620,-80.4450,1.0,1.2,115.0,99.0,'11111222,11111222,11144222' 
FIT,ioos:station:wmo:SIPF1:1,2017-03-02T19:30:00Z,27.8620,-80.4450,1.0,3.2,86.0,99.0,'11111222,11111222,11144222' 
FIT,ioos:station:wmo:SIPF1:1,2017-03-02T19:45:00Z,27.8620,-80.4450,1.0,4.7,93.0,99.0,'11111222,11111222,11144222' 
FIT,ioos:station:wmo:SIPF1:1,2017-03-02T20:00:00Z,27.8620,-80.4450,1.0,4.1,94.0,99.0,'11111222,11111222,11144222' 
FIT,ioos:station:wmo:SIPF1:1,2017-03-02T20:15:00Z,27.8620,-80.4450,1.0,3.8,107.0,99.0,'11111222,11111222,11144222' 
FIT,ioos:station:wmo:SIPF1:1,2017-03-02T20:30:00Z,27.8620,-80.4450,1.0,4.1,111.0,99.0,'11111222,11111222,11144222' 
FIT,ioos:station:wmo:SIPF1:1,2017-03-02T20:45:00Z,27.8620,-80.4450,1.0,4.3,121.0,99.0,'11111222,11111222,11144222' 
FIT,ioos:station:wmo:SIPF1:1,2017-03-02T21:00:00Z,27.8620,-80.4450,1.0,3.9,119.0,99.0,'11111222,11111222,11144222' 
FIT,ioos:station:wmo:SIPF1:1,2017-03-02T21:15:00Z,27.8620,-80.4450,1.0,4.0,123.0,99.0,'11111222,11111222,11144222' 
FIT,ioos:station:wmo:SIPF1:1,2017-03-02T21:30:00Z,27.8620,-80.4450,1.0,3.8,125.0,99.0,'11111222,11111222,11144222' 
FIT,ioos:station:wmo:SIPF1:1,2017-03-02T21:45:00Z,27.8620,-80.4450,1.0,2.5,113.0,99.0,'11111222,11111222,11144222' 
FIT,ioos:station:wmo:SIPF1:1,2017-03-02T22:00:00Z,27.8620,-80.4450,1.0,2.8,114.0,99.0,'11111222,11111222,11144222' 
FIT,ioos:station:wmo:SIPF1:1,2017-03-02T22:15:00Z,27.8620,-80.4450,1.0,2.3,107.0,99.0,'11111222,11111222,11144222' 
FIT,ioos:station:wmo:SIPF1:1,2017-03-02T22:30:00Z,27.8620,-80.4450,1.0,2.5,63.0,99.0,'11111222,11111222,11144222' 
FIT,ioos:station:wmo:SIPF1:1,2017-03-02T22:45:00Z,27.8620,-80.4450,1.0,2.9,69.0,99.0,'11111222,11111222,11144222' 
FIT,ioos:station:wmo:SIPF1:1,2017-03-02T23:00:00Z,27.8620,-80.4450,1.0,3.1,50.0,99.0,'11111222,11111222,11144222' 
FIT,ioos:station:wmo:SIPF1:1,2017-03-02T23:15:00Z,27.8620,-80.4450,1.0,4.7,31.0,99.0,'11111222,11111222,11144222' 
FIT,ioos:station:wmo:SIPF1:1,2017-03-02T23:30:00Z,27.8620,-80.4450,1.0,6.6,25.0,99.0,'11111222,11111222,11144222' 
FIT,ioos:station:wmo:SIPF1:1,2017-03-02T23:45:00Z,27.8620,-80.4450,1.0,9.3,11.0,99.0,'11111222,11111222,11144222' 
FIT,ioos:station:wmo:SIPF1:1,2017-03-03T00:00:00Z,27.8620,-80.4450,1.0,10.7,8.0,99.0,'11111222,11111222,11144222' 
FIT,ioos:station:wmo:SIPF1:1,2017-03-03T00:15:00Z,27.8620,-80.4450,1.0,10.5,6.0,99.0,'11111222,11111222,11144222' 
FIT,ioos:station:wmo:SIPF1:1,2017-03-03T00:30:00Z,27.8620,-80.4450,1.0,11.1,11.0,99.0,'11111222,11111222,11144222' 
FIT,ioos:station:wmo:SIPF1:1,2017-03-03T00:45:00Z,27.8620,-80.4450,1.0,11.6,6.0,99.0,'11111222,11111222,11144222' 
FIT,ioos:station:wmo:SIPF1:1,2017-03-03T01:00:00Z,27.8620,-80.4450,1.0,11.3,7.0,99.0,'11111222,11111222,11144222' 
FIT,ioos:station:wmo:SIPF1:1,2017-03-03T01:15:00Z,27.8620,-80.4450,1.0,11.7,4.0,99.0,'11111222,11111222,11144222' 
FIT,ioos:station:wmo:SIPF1:1,2017-03-03T01:30:00Z,27.8620,-80.4450,1.0,12.0,5.0,99.0,'11111222,11111222,11144222' 
FIT,ioos:station:wmo:SIPF1:1,2017-03-03T01:45:00Z,27.8620,-80.4450,1.0,11.7,356.0,99.0,'11111222,11111222,11144222' 
FIT,ioos:station:wmo:SIPF1:1,2017-03-03T02:00:00Z,27.8620,-80.4450,1.0,12.0,356.0,99.0,'11111222,11111222,11144222' 
FIT,ioos:station:wmo:SIPF1:1,2017-03-03T02:15:00Z,27.8620,-80.4450,1.0,12.4,0.0,99.0,'11111222,11111222,11144222' 
FIT,ioos:station:wmo:SIPF1:1,2017-03-03T02:30:00Z,27.8620,-80.4450,1.0,12.4,1.0,99.0,'11111222,11111222,11144222' 
FIT,ioos:station:wmo:SIPF1:1,2017-03-03T02:45:00Z,27.8620,-80.4450,1.0,11.9,359.0,99.0,'11111222,11111222,11144222' 
FIT,ioos:station:wmo:SIPF1:1,2017-03-03T03:00:00Z,27.8620,-80.4450,1.0,11.3,4.0,99.0,'11111222,11111222,11144222' 
FIT,ioos:station:wmo:SIPF1:1,2017-03-03T03:15:00Z,27.8620,-80.4450,1.0,11.7,2.0,99.0,'11111222,11111222,11144222' 